Weather History for KAUM - November, 2012

Change the Weather History Date:

Tuesday, November 6, 2012

  Actual Average Record
Temperature  
Mean Temperature 40 °F -  
Max Temperature 44 °F 45 °F 71 °F (2004)
Min Temperature 37 °F 30 °F 14 °F (2003)
Degree Days  
Heating Degree Days 24    
Moisture  
Dew Point 37 °F    
Average Humidity 89    
Maximum Humidity 100    
Minimum Humidity 71    
Precipitation  
Precipitation 0.13 in - - ()
Sea Level Pressure  
Sea Level Pressure 29.86 in    
Wind  
Wind Speed 12 mph (West)    
Max Wind Speed 18 mph    
Max Gust Speed 28 mph    
Visibility 7 miles    
Events Rain    
Averages and records for this station are not official NWS values.
T = Trace of Precipitation, MM = Missing Value Source: NWS Daily Summary

Daily Weather History Graph

Daily Weather History Graph

Search for Another Location

Airport or City:

Trip Planner

Search our weather history database for the weather conditions in past years. The results will help you decide how hot, cold, wet, or windy it might be!

Date:

Astronomy

Nov. 06, 2012 Rise Set
Actual Time 6:54 AM CST 4:55 PM CST
Civil Twilight 6:24 AM CST 5:25 PM CST
Nautical Twilight 5:50 AM CST 5:59 PM CST
Astronomical Twilight 5:16 AM CST 6:33 PM CST
Moon 11:37 PM CST (11/6) 12:45 PM CST (11/6)
Length of Visible Light 11h 01m
Length of Day
10h 00m
Waning Gibbous, 53% of the Moon is Illuminated
Nov 6
Waning Gibbous
Nov 6
Last Quarter
Nov 13
New
Nov 20
First Quarter
Nov 28
Full

Hourly Weather History & Observations

Time (CST) Temp. Windchill Dew Point Humidity Pressure Visibility Wind Dir Wind Speed Gust Speed Precip Events Conditions
12:15 AM 39.2 °F 32.5 °F 35.6 °F 87% 29.97 in 7.0 mi SSW 10.4 mph - N/A   Overcast
12:35 AM 39.2 °F 32.5 °F 35.6 °F 87% 29.97 in 7.0 mi SSW 10.4 mph 16.1 mph N/A   Overcast
12:55 AM 39.2 °F 31.6 °F 35.6 °F 87% 29.97 in 7.0 mi SSW 12.7 mph - N/A   Overcast
1:15 AM 39.2 °F 31.6 °F 35.6 °F 87% 29.97 in 7.0 mi SSW 12.7 mph 18.4 mph N/A   Overcast
1:35 AM 39.2 °F 32.5 °F 35.6 °F 87% 29.96 in 7.0 mi South 10.4 mph - N/A   Overcast
1:55 AM 39.2 °F 32.0 °F 35.6 °F 87% 29.95 in 7.0 mi South 11.5 mph - N/A   Overcast
2:15 AM 39.2 °F 31.2 °F 35.6 °F 87% 29.94 in 7.0 mi SSW 13.8 mph - N/A   Overcast
2:35 AM 39.2 °F 32.0 °F 35.6 °F 87% 29.93 in 7.0 mi SSW 11.5 mph - N/A   Overcast
2:54 AM 39.2 °F 32.0 °F 35.6 °F 87% 29.92 in 7.0 mi South 11.5 mph - N/A Rain Light Rain
3:15 AM 39.2 °F 32.5 °F 35.6 °F 87% 29.91 in 5.0 mi SSW 10.4 mph - 0.01 in Rain Light Rain
3:35 AM 37.4 °F 30.3 °F 35.6 °F 93% 29.90 in 4.0 mi SSW 10.4 mph - 0.02 in Rain Light Rain
3:54 AM 37.4 °F 30.3 °F 35.6 °F 93% 29.89 in 4.0 mi SSW 10.4 mph 16.1 mph 0.02 in Rain Light Rain
4:15 AM 37.4 °F 30.3 °F 37.4 °F 100% 29.88 in 4.0 mi South 10.4 mph 16.1 mph 0.01 in Rain Light Rain
4:35 AM 37.4 °F 28.9 °F 37.4 °F 100% 29.86 in 3.0 mi South 13.8 mph - 0.01 in Rain Light Rain
4:54 AM 39.2 °F 30.5 °F 37.4 °F 93% 29.84 in 3.0 mi South 16.1 mph 19.6 mph 0.01 in   Drizzle
5:15 AM 39.2 °F 31.2 °F 37.4 °F 93% 29.84 in 4.0 mi SSW 13.8 mph 17.3 mph 0.02 in Rain Light Rain
5:54 AM 39.2 °F 30.8 °F 37.4 °F 93% 29.82 in 4.0 mi SSW 15.0 mph 21.9 mph 0.03 in Rain Rain
6:15 AM 39.2 °F 31.6 °F 37.4 °F 93% 29.82 in 3.0 mi SSW 12.7 mph - N/A Rain Rain
6:35 AM 39.2 °F 29.8 °F 37.4 °F 93% 29.82 in 4.0 mi SSW 18.4 mph 24.2 mph 0.04 in Rain Light Rain
6:54 AM 39.2 °F 30.2 °F 37.4 °F 93% 29.82 in 7.0 mi SW 17.3 mph 21.9 mph 0.05 in Rain Light Rain
7:15 AM 39.2 °F 31.2 °F 37.4 °F 93% 29.82 in 4.0 mi SW 13.8 mph 17.3 mph N/A Rain Light Rain
7:35 AM 39.2 °F 31.6 °F 37.4 °F 93% 29.81 in 2.5 mi SSW 12.7 mph - 0.01 in   Drizzle
7:54 AM 39.2 °F 31.6 °F 37.4 °F 93% 29.81 in 2.0 mi SW 12.7 mph - 0.01 in   Light Drizzle
8:15 AM 39.2 °F 32.5 °F 37.4 °F 93% 29.81 in 1.5 mi SW 10.4 mph - N/A   Drizzle
8:35 AM 39.2 °F 32.5 °F 39.2 °F 100% 29.81 in 1.2 mi SW 10.4 mph - N/A   Drizzle
8:55 AM 39.2 °F 33.0 °F 39.2 °F 100% 29.81 in 1.0 mi WSW 9.2 mph - N/A   Drizzle
9:15 AM 41.0 °F 35.8 °F 39.2 °F 93% 29.81 in 1.8 mi West 8.1 mph - N/A   Light Drizzle
9:35 AM 41.0 °F 34.7 °F 39.2 °F 93% 29.81 in 5.0 mi West 10.4 mph 16.1 mph N/A   Overcast
9:55 AM 42.8 °F 36.6 °F 41.0 °F 93% 29.81 in 10.0 mi WNW 11.5 mph 19.6 mph N/A   Overcast
10:15 AM 42.8 °F 35.4 °F 39.2 °F 87% 29.81 in 10.0 mi WNW 15.0 mph 18.4 mph N/A   Overcast
10:35 AM 42.8 °F 36.2 °F 37.4 °F 81% 29.81 in 10.0 mi NW 12.7 mph 19.6 mph N/A   Overcast
10:55 AM 42.8 °F 34.8 °F 37.4 °F 81% 29.81 in 10.0 mi WNW 17.3 mph 24.2 mph N/A   Mostly Cloudy
11:15 AM 42.8 °F 35.4 °F 37.4 °F 81% 29.81 in 10.0 mi WNW 15.0 mph 26.5 mph N/A   Mostly Cloudy
11:35 AM 42.8 °F 34.5 °F 37.4 °F 81% 29.81 in 10.0 mi WNW 18.4 mph 24.2 mph N/A   Overcast
11:55 AM 42.8 °F 34.5 °F 37.4 °F 81% 29.81 in 10.0 mi WNW 18.4 mph 24.2 mph N/A   Overcast
12:15 PM 42.8 °F 34.8 °F 37.4 °F 81% 29.80 in 10.0 mi WNW 17.3 mph 24.2 mph N/A   Overcast
12:35 PM 42.8 °F 35.4 °F 37.4 °F 81% 29.81 in 10.0 mi NW 15.0 mph 24.2 mph N/A   Overcast
12:55 PM 42.8 °F 36.2 °F 37.4 °F 81% 29.81 in 10.0 mi NW 12.7 mph - N/A   Overcast
1:15 PM 44.6 °F 37.2 °F 35.6 °F 71% 29.80 in 10.0 mi NW 17.3 mph 27.6 mph N/A   Overcast
1:35 PM 44.6 °F 38.1 °F 35.6 °F 71% 29.81 in 10.0 mi WNW 13.8 mph 20.7 mph N/A   Overcast
1:54 PM 44.6 °F 37.4 °F 35.6 °F 71% 29.81 in 10.0 mi WNW 16.1 mph 24.2 mph N/A   Overcast
2:15 PM 42.8 °F 34.5 °F 35.6 °F 76% 29.82 in 10.0 mi WNW 18.4 mph 23.0 mph N/A   Overcast
2:35 PM 42.8 °F 35.4 °F 37.4 °F 81% 29.82 in 10.0 mi WNW 15.0 mph - N/A   Light Drizzle
2:54 PM 42.8 °F 35.4 °F 37.4 °F 81% 29.83 in 4.0 mi WNW 15.0 mph 23.0 mph N/A   Overcast
3:15 PM 41.0 °F 33.5 °F 37.4 °F 87% 29.83 in 3.0 mi WNW 13.8 mph 19.6 mph N/A   Drizzle
3:35 PM 41.0 °F 33.9 °F 39.2 °F 93% 29.84 in 7.0 mi WNW 12.7 mph 16.1 mph N/A   Light Drizzle
4:15 PM 39.2 °F 30.8 °F 37.4 °F 93% 29.85 in 10.0 mi WNW 15.0 mph 19.6 mph N/A   Light Drizzle
4:35 PM 39.2 °F 33.0 °F 37.4 °F 93% 29.85 in 10.0 mi WNW 9.2 mph - N/A   Drizzle
4:54 PM 39.2 °F 34.2 °F 37.4 °F 93% 29.85 in 7.0 mi WNW 6.9 mph - N/A Rain Rain
5:15 PM 39.2 °F 31.2 °F 37.4 °F 93% 29.86 in 7.0 mi WNW 13.8 mph - 0.01 in Rain Light Rain
5:34 PM 39.2 °F 30.8 °F 37.4 °F 93% 29.86 in 7.0 mi WNW 15.0 mph 19.6 mph 0.01 in Rain Light Rain
5:55 PM 39.2 °F 32.5 °F 37.4 °F 93% 29.86 in 10.0 mi NW 10.4 mph - 0.01 in Rain Light Rain
6:15 PM 39.2 °F 32.5 °F 37.4 °F 93% 29.86 in 7.0 mi NW 10.4 mph - N/A Rain Light Rain
6:35 PM 39.2 °F 31.6 °F 39.2 °F 100% 29.86 in 10.0 mi WNW 12.7 mph 17.3 mph N/A   Light Drizzle
6:55 PM 39.2 °F 30.2 °F 37.4 °F 93% 29.86 in 10.0 mi WNW 17.3 mph 24.2 mph N/A   Overcast
7:15 PM 39.2 °F 30.5 °F 37.4 °F 93% 29.87 in 10.0 mi NW 16.1 mph 26.5 mph N/A   Drizzle
7:35 PM 39.2 °F 33.0 °F 37.4 °F 93% 29.88 in 10.0 mi NW 9.2 mph 17.3 mph N/A   Overcast
7:55 PM 39.2 °F 32.0 °F 37.4 °F 93% 29.88 in 10.0 mi NW 11.5 mph - N/A   Overcast
8:15 PM 39.2 °F 32.5 °F 37.4 °F 93% 29.88 in 10.0 mi NW 10.4 mph - N/A   Overcast
8:35 PM 39.2 °F 33.0 °F 37.4 °F 93% 29.88 in 10.0 mi NW 9.2 mph - N/A   Overcast
8:55 PM 39.2 °F 34.2 °F 37.4 °F 93% 29.89 in 10.0 mi NW 6.9 mph - N/A   Overcast
9:15 PM 39.2 °F 33.6 °F 37.4 °F 93% 29.89 in 10.0 mi NW 8.1 mph - N/A   Overcast
9:35 PM 39.2 °F 32.0 °F 37.4 °F 93% 29.90 in 10.0 mi NNW 11.5 mph 16.1 mph N/A   Overcast
9:55 PM 39.2 °F 32.0 °F 35.6 °F 87% 29.90 in 10.0 mi NNW 11.5 mph - N/A   Overcast
10:14 PM 39.2 °F 33.0 °F 35.6 °F 87% 29.90 in 10.0 mi NNW 9.2 mph - N/A   Overcast
10:35 PM 39.2 °F 32.5 °F 35.6 °F 87% 29.91 in 10.0 mi NNW 10.4 mph 16.1 mph N/A   Overcast
10:55 PM 39.2 °F 32.0 °F 33.8 °F 81% 29.92 in 10.0 mi NNW 11.5 mph 16.1 mph N/A   Overcast
11:14 PM 37.4 °F 29.8 °F 33.8 °F 87% 29.93 in 10.0 mi North 11.5 mph 18.4 mph N/A   Overcast
11:35 PM 37.4 °F 30.3 °F 33.8 °F 87% 29.94 in 10.0 mi NNW 10.4 mph 18.4 mph N/A   Overcast
11:55 PM 37.4 °F 31.4 °F 33.8 °F 87% 29.95 in 10.0 mi NNW 8.1 mph - N/A   Overcast